Regional Weather Roundup
Issued by NWS

Home | Current Version | Previous Version | Graphics & Text | Print | Product List | Glossary On
Versions: 1 2 3 4 5 6 7 8 9 10 11 12 13 14 15 16 17 18 19 20 21 22 23 24 25 26 27 28 29 30 31 32 33 34 35 36 37 38 39 40 41 42 43 44 45 46 47 48 49 50
000
ASUS43 KLMK 271902
RWRKY
KENTUCKY REGIONAL WEATHER ROUNDUP
NATIONAL WEATHER SERVICE LOUISVILLE KY
300 PM EDT TUE SEP 27 2016

NOTE "FAIR" INDICATES FEW OR NO CLOUDS BELOW 12,000 FEET
WITH NO SIGNIFICANT WEATHER AND/OR OBSTRUCTIONS TO VISIBILITY.

KYZ001>023-026-027-061>063-070>075-272000-
WESTERN AND SOUTH CENTRAL KENTUCKY

CITY           SKY/WX    TMP DP  RH WIND       PRES   REMARKS
PADUCAH        SUNNY     78  44  29 W10       29.97F
HENDERSON      SUNNY     79  45  29 W10       29.93F
OWENSBORO      NOT AVBL
HOPKINSVILLE   SUNNY     74  40  28 CALM      29.97F
BOWLING GREEN  SUNNY     75  41  29 VRB3      29.97F
GLASGOW        SUNNY     74  41  30 CALM      29.97F
$$

KYZ024-025-028>034-038-045-046-053-272000-
NORTH CENTRAL KENTUCKY

CITY           SKY/WX    TMP DP  RH WIND       PRES   REMARKS
LOUISVILLE/SDF MOSUNNY   77  41  27 W14       29.93F
LOUISVILLE/LOU SUNNY     76  43  30 SW9       29.94F
FORT KNOX      SUNNY     75  42  30 SW13      29.94F
$$

KYZ035>037-039>044-047>052-055>060-089>105-272000-
NORTHEAST KENTUCKY

CITY           SKY/WX    TMP DP  RH WIND       PRES   REMARKS
LEXINGTON      SUNNY     74  34  23 VRB3      29.95F
COVINGTON      MOSUNNY   73  44  35 SW8G18    29.90F
FRANKFORT      SUNNY     75  41  29 W10G20    29.94F
$$

KYZ054-064>069-076>088-106>120-272000-
SOUTHEAST KENTUCKY

CITY           SKY/WX    TMP DP  RH WIND       PRES   REMARKS
JACKSON        SUNNY     74  42  31 VRB5      29.96F
LONDON         SUNNY     74  37  26 VRB5      29.97F
SOMERSET       SUNNY     70  39  32 W6        29.98F
MIDDLESBORO    SUNNY     76  47  35 E7        29.96F
MONTICELLO     CLEAR     74  43  32 W8G16     29.99F
$$




USA.gov is the U.S. government's official web portal to all federal, state and local government web resources and services.